This demonstration page uses our WeatherBlox Daily Observations layout. Learn more.

Left ArrowRight Arrow

Hourly Observations for January 16, 2017

Temp ( °F °C ) Dew Point ( °F °C ) Humidity (%) Winds ( mph kmh ) Pressure ( in mb ) Visibility ( mi km ) Precip ( " mm )
12:52 am 00:52 Cloudy with Mist and Fog 44 6.7 43 6.1 96 96 SE 16 26 30.05 1018 4 6 0.00 0.00
1:52 am 01:52 Cloudy with Mist and Fog 45 7.2 43 6.1 93 93 SE 20 31 30.03 1017 6 10 0.00 0.00
2:52 am 02:52 Cloudy 46 7.8 45 7.2 96 96 SE 21 33 30.02 1017 9 14 0.00 0.00
3:52 am 03:52 Cloudy 47 8.3 45 7.2 93 93 SSE 23 37 30.01 1016 8 13 0.00 0.00
4:41 am 04:41 Cloudy with Rain 47 8.3 45 7.2 93 93 SSE 21 33 30.03 1017 8 13 0.04 1.02
4:52 am 04:52 Cloudy with Rain 47 8.3 45 7.2 93 93 SSE 21 33 30.00 1016 7 11 0.06 1.52
5:52 am 05:52 Cloudy with Light Rain 48 8.9 46 7.8 93 93 SE 23 37 29.95 1014 10 16 0.03 0.76
6:52 am 06:52 Cloudy 49 9.4 48 8.9 97 97 SSE 22 35 29.92 1013 10 16 0.00 0.03
7:49 am 07:49 Cloudy 50 10 48 9 94 94 SSE 17 28 29.94 1014 9 14 0.00 0.00
7:52 am 07:52 Cloudy 50 10 49 9.4 96 96 SSE 20 31 29.93 1014 9 14 0.00 0.00
8:52 am 08:52 Cloudy 50 10 49 9.4 96 96 SSE 16 26 29.94 1014 8 13 0.00 0.00
9:52 am 09:52 Cloudy 52 11.1 50 10 93 93 SSE 14 22 29.94 1014 9 14 0.00 0.00
10:52 am 10:52 Cloudy with Light Rain 53 11.7 52 11.1 96 96 SSE 15 24 29.93 1014 5 8 0.00 0.03
11:14 am 11:14 Cloudy 54 12 52 11 94 94 SSE 15 24 29.91 1013 9 14 0.00 0.00
11:52 am 11:52 Cloudy 55 12.8 53 11.7 93 93 SSE 20 31 29.89 1012 9 14 0.01 0.25
12:52 pm 12:52 Cloudy 56 13.3 54 12.2 93 93 SSE 17 28 29.87 1012 10 16 0.01 0.25
1:52 pm 13:52 Cloudy 57 13.9 55 12.8 93 93 S 12 19 29.85 1011 10 16 0.00 0.00
2:45 pm 14:45 Cloudy 60 15.6 55 12.8 84 84 S 15 24 29.80 1009 10 16 0.00 0.00
2:52 pm 14:52 Cloudy 60 15.6 56 13.3 86 86 S 12 19 29.83 1010 10 16 0.00 0.00
3:10 pm 15:10 Partly Cloudy 61 16 55 13 83 83 S 15 24 29.80 1009 10 16 0.00 0.00
3:52 pm 15:52 Mostly Sunny 61 16.1 55 12.8 81 81 S 13 20 29.83 1010 10 16 0.00 0.00
4:52 pm 16:52 Mostly Sunny 59 15 54 12.2 83 83 S 9 15 29.84 1011 10 16 0.00 0.00
5:52 pm 17:52 Clear 53 11.7 50 10 89 89 SW 8 13 29.87 1012 10 16 0.00 0.00
6:52 pm 18:52 Clear 53 11.7 46 7.8 77 77 W 16 26 29.91 1013 10 16 0.00 0.00
7:21 pm 19:21 Mostly Cloudy 50 10 44 6.7 80 80 W 20 31 29.94 1014 10 16 0.00 0.00
7:34 pm 19:34 Cloudy 48 9 43 6 82 82 W 22 35 29.97 1015 10 16 0.00 0.00
7:49 pm 19:49 Cloudy 46 8 41 5 82 82 W 21 33 29.97 1015 10 16 0.00 0.00
7:52 pm 19:52 Cloudy 47 8.3 40 4.4 77 77 W 22 35 29.95 1014 10 16 0.00 0.00
8:52 pm 20:52 Cloudy 45 7.2 38 3.3 77 77 W 12 19 29.97 1015 10 16 0.00 0.00
9:52 pm 21:52 Cloudy 43 6.1 35 1.7 74 74 WSW 14 22 29.98 1015 10 16 0.00 0.00
10:52 pm 22:52 Cloudy 43 6.1 35 1.7 74 74 W 16 26 29.98 1015 10 16 0.00 0.00
11:52 pm 23:52 Cloudy 42 5.6 34 1.1 73 73 W 16 26 29.98 1015 10 16 0.00 0.00

Powered by AerisWeather